COSMOS 1904

Satellite information

Favourite Embed

Satellite Type and Status

PAYLOADIN ORBIT

Key statistics

Satellite COSMOS 1904 at a glance.

Uptime

13870

Days in orbit

Revolutions

≈ 13.7

Per day

Orbit

LEO

Low Earth Orbit

Inclination

82.9

Latest

Satellite identification and parameters

Extended collection of information and parameters for COSMOS 1904.

Object identification

Identified? True

Debris? False

Object name: COSMOS 1904

International designator: 1987-106A

Object number (NORAD): 18709

Object ID (CCSDS): 18709

Country: COMMONWEALTH OF INDEPENDENT STATES (CIS)

Current information (Y/N): Y

RCS size: LARGE

Orbital parameters

Period: 104.769 minutes

Inclination: 82.9142 deg

SMA: 7361.759 km

Apoapsis: 1003.399 km

Periapsis: 963.85 km

RAAN: 209.4687 deg

Eccentricy: 0.00268614

Argument of periapsis: 200.5921 deg

Mean anomaly: 278.6889 deg

Mean motion: 13.74454409 rev/day

Mean motion (dot): 0.00000069 rev/day2

B* drag term: 0.000056765524 1/REarth

Two-line elements (TLE)

Creation date: Dec. 12, 2025, 10:14 a.m.

Reference frame: TEME

Reference center: EARTH

Epoch: Dec. 12, 2025, 3:45 a.m. UTC

TLE line 0: 0 COSMOS 1904

TLE line 1: 1 18709U 87106A 25346.15688558 .00000069 00000-0 56766-4 0 9992

TLE line 2: 2 18709 82.9142 209.4687 0026861 200.5921 278.6889 13.74454409904003

Live tracking on map

Real-time ground track for satellite COSMOS 1904.

In-orbit conjunctions

A list of the most updated potential collisions computed for object COSMOS 1904.

Target Orbit TCA Probability of collision Miss distance Type
DELTA 1 DEB SSO 2025-06-29 08:39:56 0.0004107542 491.0 (m) DEBRIS
FENGYUN 1C DEB SSO 2024-10-10 13:36:10 0.0001033633 308.0 (m) DEBRIS
COSMOS 1275 DEB LEO 2024-09-27 19:01:05 0.01659239 16.0 (m) DEBRIS

Associated space launch

Navigation satellite providing location information for the Tsiklon-B navigation system

COSMOS 1904 was lifted into orbit during the mission ‘Kosmos-3M | Parus 61’, on board a Kosmos-3M space rocket.

The launch took place on Dec. 23, 1987, 8:22 p.m. from 133/3 (133L).

For more information about the launch, click the button.

Launch to space Kosmos-3M | Parus 61
Kosmos-3M | Parus 61

Agency: N/A

Status: Launch Successful

Launch date: Dec. 23, 1987, 8:22 p.m. UTC

Rocket: Kosmos-3M

Launch pad: 133/3 (133L)

Location: Plesetsk Cosmodrome, Russian Federation

...

Latest news about this satellite

There are no fresh news available about this satellite. Check back as we update our databases every day.


Newsletter sign-up

Weekly statistics, charts and insights to help you stay on top of the space industry.